Time,TemperatureF,DewpointF,PressureIn,WindDirection,WindDirectionDegrees,WindSpeedMPH,WindSpeedGustMPH,Humidity,HourlyPrecipIn,Conditions,Clouds,dailyrainin,SoftwareType,DateUTC
2013-10-02 00:01:00,66.4,60.8,29.89,SW,225,10.0,14.0,82,0.00,,,0.00,meteohub,2013-10-02 04:01:00,
2013-10-02 00:02:00,66.4,60.8,29.89,SW,215,3.0,14.0,82,0.00,,,0.00,meteohub,2013-10-02 04:02:00,
2013-10-02 00:03:00,66.4,60.8,29.89,WSW,238,4.0,14.0,82,0.00,,,0.00,meteohub,2013-10-02 04:03:00,
2013-10-02 00:04:00,66.4,60.8,29.89,SW,236,8.0,14.0,82,0.00,,,0.00,meteohub,2013-10-02 04:04:00,
2013-10-02 00:09:00,66.0,60.6,29.89,SW,234,11.0,14.0,83,0.00,,,0.00,meteohub,2013-10-02 04:09:00,
2013-10-02 00:14:00,65.8,60.6,29.89,SW,219,1.0,13.0,83,0.00,,,0.00,meteohub,2013-10-02 04:14:00,
2013-10-02 00:19:00,65.8,60.8,29.89,WSW,244,3.0,13.0,84,0.00,,,0.00,meteohub,2013-10-02 04:19:00,
2013-10-02 00:24:00,65.7,61.0,29.89,SSW,210,3.0,13.0,85,0.00,,,0.00,meteohub,2013-10-02 04:24:00,
2013-10-02 00:29:00,65.5,60.8,29.89,SW,234,3.0,13.0,85,0.00,,,0.00,meteohub,2013-10-02 04:29:00,
2013-10-02 00:34:00,65.3,61.0,29.89,SSW,205,4.0,13.0,86,0.00,,,0.00,meteohub,2013-10-02 04:34:00,
2013-10-02 00:39:00,65.3,61.0,29.89,SW,227,6.0,11.0,86,0.00,,,0.00,meteohub,2013-10-02 04:39:00,
2013-10-02 00:44:00,65.3,61.0,29.89,SSW,200,5.0,11.0,86,0.00,,,0.00,meteohub,2013-10-02 04:44:00,
2013-10-02 00:49:00,65.3,61.0,29.89,WSW,251,5.0,11.0,86,0.00,,,0.00,meteohub,2013-10-02 04:49:00,
2013-10-02 00:54:00,65.5,61.2,29.89,WSW,240,5.0,11.0,86,0.00,,,0.00,meteohub,2013-10-02 04:54:00,
2013-10-02 00:59:00,65.5,61.5,29.89,SSW,212,5.0,12.0,87,0.00,,,0.00,meteohub,2013-10-02 04:59:00,
2013-10-02 01:04:00,65.5,61.5,29.89,SSW,210,9.0,13.0,87,0.00,,,0.00,meteohub,2013-10-02 05:04:00,
2013-10-02 01:09:00,65.5,61.5,29.89,SW,236,7.0,13.0,87,0.00,,,0.00,meteohub,2013-10-02 05:09:00,
2013-10-02 01:14:00,65.3,61.3,29.89,South,181,6.0,13.0,87,0.00,,,0.00,meteohub,2013-10-02 05:14:00,
2013-10-02 01:19:00,65.3,61.7,29.90,West,271,2.0,13.0,88,0.00,,,0.00,meteohub,2013-10-02 05:19:00,
2013-10-02 01:24:00,65.5,61.9,29.89,SSW,209,2.0,13.0,88,0.00,,,0.00,meteohub,2013-10-02 05:24:00,
2013-10-02 01:29:00,65.5,61.9,29.89,SW,228,3.0,13.0,88,0.00,,,0.00,meteohub,2013-10-02 05:29:00,
2013-10-02 01:35:00,65.5,61.9,29.89,SSW,201,8.0,13.0,88,0.00,,,0.00,meteohub,2013-10-02 05:35:00,
2013-10-02 01:40:00,65.7,62.1,29.89,SSW,207,3.0,13.0,88,0.00,,,0.00,meteohub,2013-10-02 05:40:00,
2013-10-02 01:45:00,65.7,62.1,29.90,West,265,0.0,15.0,88,0.00,,,0.00,meteohub,2013-10-02 05:45:00,
2013-10-02 01:50:00,65.7,62.1,29.89,WNW,292,1.0,15.0,88,0.00,,,0.00,meteohub,2013-10-02 05:50:00,
2013-10-02 01:55:00,65.8,61.9,29.89,WSW,252,1.0,15.0,87,0.00,,,0.00,meteohub,2013-10-02 05:55:00,
2013-10-02 02:00:00,66.0,62.1,29.89,West,279,7.0,13.0,87,0.00,,,0.00,meteohub,2013-10-02 06:00:00,
2013-10-02 02:05:00,66.0,62.1,29.89,SW,228,5.0,13.0,87,0.00,,,0.00,meteohub,2013-10-02 06:05:00,
2013-10-02 02:10:00,66.0,62.1,29.89,SW,217,6.0,11.0,87,0.00,,,0.00,meteohub,2013-10-02 06:10:00,
2013-10-02 02:15:00,66.0,62.1,29.90,SW,224,5.0,13.0,87,0.00,,,0.00,meteohub,2013-10-02 06:15:00,
2013-10-02 02:20:00,66.0,62.1,29.90,SSW,194,5.0,13.0,87,0.00,,,0.00,meteohub,2013-10-02 06:20:00,
2013-10-02 02:25:00,66.0,62.4,29.90,SSW,196,7.0,15.0,88,0.00,,,0.00,meteohub,2013-10-02 06:25:00,
2013-10-02 02:30:00,66.0,62.4,29.90,West,265,4.0,15.0,88,0.00,,,0.00,meteohub,2013-10-02 06:30:00,
2013-10-02 02:35:00,66.0,62.4,29.90,WNW,286,6.0,15.0,88,0.00,,,0.00,meteohub,2013-10-02 06:35:00,
2013-10-02 02:40:00,66.0,62.4,29.90,WSW,258,2.0,15.0,88,0.00,,,0.00,meteohub,2013-10-02 06:40:00,
2013-10-02 02:45:00,66.0,62.4,29.90,West,275,7.0,15.0,88,0.00,,,0.00,meteohub,2013-10-02 06:45:00,
2013-10-02 02:50:00,66.0,62.4,29.90,West,265,2.0,14.0,88,0.00,,,0.00,meteohub,2013-10-02 06:50:00,
2013-10-02 02:55:00,66.2,62.6,29.90,West,269,5.0,14.0,88,0.00,,,0.00,meteohub,2013-10-02 06:55:00,
2013-10-02 03:00:00,66.4,62.8,29.90,West,277,5.0,14.0,88,0.00,,,0.00,meteohub,2013-10-02 07:00:00,
2013-10-02 03:06:00,66.4,62.8,29.90,WSW,256,4.0,13.0,88,0.00,,,0.00,meteohub,2013-10-02 07:06:00,
2013-10-02 03:11:00,66.4,62.8,29.90,West,269,6.0,11.0,88,0.00,,,0.00,meteohub,2013-10-02 07:11:00,
2013-10-02 03:16:00,66.6,63.0,29.90,SSW,211,6.0,12.0,88,0.00,,,0.00,meteohub,2013-10-02 07:16:00,
2013-10-02 03:21:00,66.6,63.0,29.90,WSW,253,2.0,12.0,88,0.00,,,0.00,meteohub,2013-10-02 07:21:00,
2013-10-02 03:26:00,66.6,63.0,29.90,WNW,294,6.0,12.0,88,0.00,,,0.00,meteohub,2013-10-02 07:26:00,
2013-10-02 03:31:00,66.6,63.0,29.90,SW,224,2.0,12.0,88,0.00,,,0.00,meteohub,2013-10-02 07:31:00,
2013-10-02 03:36:00,66.6,62.6,29.89,West,275,5.0,12.0,87,0.00,,,0.00,meteohub,2013-10-02 07:36:00,
2013-10-02 03:41:00,66.6,62.6,29.89,WNW,282,7.0,12.0,87,0.00,,,0.00,meteohub,2013-10-02 07:41:00,
2013-10-02 03:46:00,66.7,62.8,29.89,West,261,1.0,13.0,87,0.00,,,0.00,meteohub,2013-10-02 07:46:00,
2013-10-02 03:51:00,66.7,62.8,29.89,SW,219,8.0,13.0,87,0.00,,,0.00,meteohub,2013-10-02 07:51:00,
2013-10-02 03:56:00,66.7,62.8,29.89,SW,236,6.0,13.0,87,0.00,,,0.00,meteohub,2013-10-02 07:56:00,
2013-10-02 04:01:00,66.7,62.4,29.89,WNW,284,2.0,15.0,86,0.00,,,0.00,meteohub,2013-10-02 08:01:00,
2013-10-02 04:06:00,66.7,62.4,29.89,WSW,254,4.0,15.0,86,0.00,,,0.00,meteohub,2013-10-02 08:06:00,
2013-10-02 04:11:00,66.9,62.6,29.89,WNW,289,5.0,15.0,86,0.00,,,0.00,meteohub,2013-10-02 08:11:00,
2013-10-02 04:16:00,66.7,62.4,29.89,WNW,295,5.0,14.0,86,0.00,,,0.00,meteohub,2013-10-02 08:16:00,
2013-10-02 04:21:00,66.7,62.4,29.89,SSW,211,7.0,14.0,86,0.00,,,0.00,meteohub,2013-10-02 08:21:00,
2013-10-02 04:26:00,66.9,62.6,29.89,WNW,287,2.0,16.0,86,0.00,,,0.00,meteohub,2013-10-02 08:26:00,
2013-10-02 04:32:00,66.9,62.6,29.89,SSW,200,3.0,16.0,86,0.00,,,0.00,meteohub,2013-10-02 08:32:00,
2013-10-02 04:37:00,66.9,63.0,29.89,SW,225,5.0,16.0,87,0.00,,,0.00,meteohub,2013-10-02 08:37:00,
2013-10-02 04:42:00,66.9,63.0,29.89,SSW,212,3.0,15.0,87,0.00,,,0.00,meteohub,2013-10-02 08:42:00,
2013-10-02 04:47:00,66.7,62.8,29.89,SW,223,4.0,15.0,87,0.00,,,0.00,meteohub,2013-10-02 08:47:00,
2013-10-02 04:52:00,66.9,63.0,29.89,SW,221,3.0,15.0,87,0.00,,,0.00,meteohub,2013-10-02 08:52:00,
2013-10-02 04:57:00,66.7,62.8,29.88,WSW,242,4.0,13.0,87,0.00,,,0.00,meteohub,2013-10-02 08:57:00,
2013-10-02 05:02:00,66.7,62.4,29.88,WSW,249,4.0,14.0,86,0.00,,,0.00,meteohub,2013-10-02 09:02:00,
2013-10-02 05:07:00,66.7,62.4,29.88,West,264,6.0,14.0,86,0.00,,,0.00,meteohub,2013-10-02 09:07:00,
2013-10-02 05:12:00,66.7,62.4,29.89,WSW,241,7.0,14.0,86,0.00,,,0.00,meteohub,2013-10-02 09:12:00,
2013-10-02 05:17:00,66.7,62.4,29.89,SW,226,11.0,14.0,86,0.00,,,0.00,meteohub,2013-10-02 09:17:00,
2013-10-02 05:22:00,66.7,62.4,29.89,WSW,244,8.0,14.0,86,0.00,,,0.00,meteohub,2013-10-02 09:22:00,
2013-10-02 05:27:00,66.7,62.4,29.89,WSW,238,5.0,13.0,86,0.00,,,0.00,meteohub,2013-10-02 09:27:00,
2013-10-02 05:32:00,66.6,62.2,29.89,WSW,250,7.0,12.0,86,0.00,,,0.00,meteohub,2013-10-02 09:32:00,
2013-10-02 05:37:00,66.6,62.2,29.89,WNW,292,2.0,12.0,86,0.00,,,0.00,meteohub,2013-10-02 09:37:00,
2013-10-02 05:43:00,66.6,62.6,29.89,SW,222,5.0,10.0,87,0.00,,,0.00,meteohub,2013-10-02 09:43:00,
2013-10-02 05:48:00,66.6,62.6,29.90,West,272,6.0,10.0,87,0.00,,,0.00,meteohub,2013-10-02 09:48:00,
2013-10-02 05:53:00,66.7,62.4,29.90,West,275,5.0,13.0,86,0.00,,,0.00,meteohub,2013-10-02 09:53:00,
2013-10-02 05:58:00,66.6,62.2,29.90,SW,218,4.0,13.0,86,0.00,,,0.00,meteohub,2013-10-02 09:58:00,
2013-10-02 06:03:00,66.7,62.4,29.90,West,263,4.0,13.0,86,0.00,,,0.00,meteohub,2013-10-02 10:03:00,
2013-10-02 06:08:00,66.7,62.4,29.91,WSW,257,2.0,14.0,86,0.00,,,0.00,meteohub,2013-10-02 10:08:00,
2013-10-02 06:13:00,66.7,62.4,29.91,West,273,2.0,14.0,86,0.00,,,0.00,meteohub,2013-10-02 10:13:00,
2013-10-02 06:18:00,66.7,62.4,29.91,SW,236,4.0,14.0,86,0.00,,,0.00,meteohub,2013-10-02 10:18:00,
2013-10-02 06:23:00,66.7,62.4,29.91,West,276,6.0,15.0,86,0.00,,,0.00,meteohub,2013-10-02 10:23:00,
2013-10-02 06:28:00,66.9,62.6,29.91,West,279,5.0,15.0,86,0.00,,,0.00,meteohub,2013-10-02 10:28:00,
2013-10-02 06:33:00,66.7,62.4,29.91,West,277,0.0,15.0,86,0.00,,,0.00,meteohub,2013-10-02 10:33:00,
2013-10-02 06:38:00,66.7,62.8,29.91,WSW,254,3.0,12.0,87,0.00,,,0.00,meteohub,2013-10-02 10:38:00,
2013-10-02 06:43:00,66.7,62.8,29.91,West,274,2.0,15.0,87,0.00,,,0.00,meteohub,2013-10-02 10:43:00,
2013-10-02 06:48:00,66.7,62.8,29.91,WSW,248,0.0,15.0,87,0.00,,,0.00,meteohub,2013-10-02 10:48:00,
2013-10-02 06:53:00,66.7,62.8,29.91,West,261,5.0,15.0,87,0.00,,,0.00,meteohub,2013-10-02 10:53:00,
2013-10-02 06:58:00,66.6,63.0,29.91,WSW,237,0.0,15.0,88,0.00,,,0.00,meteohub,2013-10-02 10:58:00,
2013-10-02 07:03:00,66.4,62.8,29.91,WSW,257,4.0,15.0,88,0.00,,,0.00,meteohub,2013-10-02 11:03:00,
2013-10-02 07:08:00,66.4,62.8,29.91,West,273,6.0,13.0,88,0.00,,,0.00,meteohub,2013-10-02 11:08:00,
2013-10-02 07:13:00,66.4,63.0,29.91,SW,230,4.0,14.0,89,0.00,,,0.00,meteohub,2013-10-02 11:13:00,
2013-10-02 07:18:00,66.4,63.0,29.92,West,264,3.0,14.0,89,0.00,,,0.00,meteohub,2013-10-02 11:18:00,
2013-10-02 07:24:00,66.4,63.0,29.92,West,276,8.0,14.0,89,0.00,,,0.00,meteohub,2013-10-02 11:24:00,
2013-10-02 07:29:00,66.4,63.0,29.92,SW,236,8.0,11.0,89,0.00,,,0.00,meteohub,2013-10-02 11:29:00,
2013-10-02 07:34:00,66.4,63.0,29.92,West,273,7.0,11.0,89,0.00,,,0.00,meteohub,2013-10-02 11:34:00,
2013-10-02 07:39:00,66.4,63.0,29.92,West,265,1.0,11.0,89,0.00,,,0.00,meteohub,2013-10-02 11:39:00,
2013-10-02 07:44:00,66.4,63.3,29.92,West,279,7.0,11.0,90,0.00,,,0.00,meteohub,2013-10-02 11:44:00,
2013-10-02 07:49:00,66.4,63.3,29.92,West,268,4.0,11.0,90,0.00,,,0.00,meteohub,2013-10-02 11:49:00,
2013-10-02 07:54:00,66.4,63.3,29.92,West,259,1.0,9.0,90,0.00,,,0.00,meteohub,2013-10-02 11:54:00,
2013-10-02 07:59:00,66.4,63.3,29.92,West,277,0.0,9.0,90,0.00,,,0.00,meteohub,2013-10-02 11:59:00,
2013-10-02 08:04:00,66.6,63.5,29.92,West,261,4.0,9.0,90,0.00,,,0.00,meteohub,2013-10-02 12:04:00,
2013-10-02 08:09:00,66.6,63.5,29.92,West,267,6.0,8.0,90,0.00,,,0.00,meteohub,2013-10-02 12:09:00,
2013-10-02 08:14:00,66.6,63.1,29.92,West,265,8.0,12.0,89,0.00,,,0.00,meteohub,2013-10-02 12:14:00,
2013-10-02 08:19:00,66.6,63.1,29.93,West,275,7.0,12.0,89,0.00,,,0.00,meteohub,2013-10-02 12:19:00,
2013-10-02 08:24:00,66.7,63.3,29.93,West,267,0.0,12.0,89,0.00,,,0.00,meteohub,2013-10-02 12:24:00,
2013-10-02 08:29:00,66.7,63.3,29.93,WNW,288,2.0,11.0,89,0.00,,,0.00,meteohub,2013-10-02 12:29:00,
2013-10-02 08:34:00,66.7,63.3,29.93,WNW,287,5.0,13.0,89,0.00,,,0.00,meteohub,2013-10-02 12:34:00,
2013-10-02 08:39:00,66.7,63.3,29.93,West,271,0.0,13.0,89,0.00,,,0.00,meteohub,2013-10-02 12:39:00,
2013-10-02 08:44:00,66.7,63.3,29.93,WNW,285,1.0,13.0,89,0.00,,,0.00,meteohub,2013-10-02 12:44:00,
2013-10-02 08:49:00,66.7,63.1,29.93,West,261,3.0,14.0,88,0.00,,,0.00,meteohub,2013-10-02 12:49:00,
2013-10-02 08:54:00,66.7,63.1,29.94,WNW,288,0.0,14.0,88,0.00,,,0.00,meteohub,2013-10-02 12:54:00,
2013-10-02 08:59:00,66.7,63.1,29.94,West,280,4.0,14.0,88,0.00,,,0.00,meteohub,2013-10-02 12:59:00,
2013-10-02 09:04:00,66.9,63.3,29.94,WSW,253,7.0,15.0,88,0.00,,,0.00,meteohub,2013-10-02 13:04:00,
2013-10-02 09:09:00,66.9,63.0,29.94,WNW,289,4.0,15.0,87,0.00,,,0.00,meteohub,2013-10-02 13:09:00,
2013-10-02 09:14:00,66.9,63.0,29.94,WNW,290,9.0,15.0,87,0.00,,,0.00,meteohub,2013-10-02 13:14:00,
2013-10-02 09:19:00,66.9,63.0,29.94,West,261,0.0,11.0,87,0.00,,,0.00,meteohub,2013-10-02 13:19:00,
2013-10-02 09:25:00,66.9,63.0,29.95,West,278,5.0,12.0,87,0.00,,,0.00,meteohub,2013-10-02 13:25:00,
2013-10-02 09:30:00,66.7,62.4,29.95,West,277,1.0,13.0,86,0.00,,,0.00,meteohub,2013-10-02 13:30:00,
2013-10-02 09:35:00,66.7,62.4,29.95,WNW,288,5.0,13.0,86,0.00,,,0.00,meteohub,2013-10-02 13:35:00,
2013-10-02 09:40:00,66.7,62.4,29.95,WNW,289,1.0,14.0,86,0.00,,,0.00,meteohub,2013-10-02 13:40:00,
2013-10-02 09:45:00,66.7,62.4,29.95,West,270,6.0,14.0,86,0.00,,,0.00,meteohub,2013-10-02 13:45:00,
2013-10-02 09:50:00,66.7,62.4,29.95,West,281,1.0,14.0,86,0.00,,,0.00,meteohub,2013-10-02 13:50:00,
2013-10-02 09:55:00,66.7,62.4,29.95,West,269,6.0,14.0,86,0.00,,,0.00,meteohub,2013-10-02 13:55:00,
2013-10-02 10:00:00,66.7,62.1,29.95,WNW,284,5.0,11.0,85,0.00,,,0.00,meteohub,2013-10-02 14:00:00,
2013-10-02 10:05:00,66.9,62.2,29.96,NW,321,1.0,11.0,85,0.00,,,0.00,meteohub,2013-10-02 14:05:00,
2013-10-02 10:10:00,66.9,62.2,29.96,NW,310,2.0,12.0,85,0.00,,,0.00,meteohub,2013-10-02 14:10:00,
2013-10-02 10:15:00,66.9,62.2,29.96,NW,313,2.0,12.0,85,0.00,,,0.00,meteohub,2013-10-02 14:15:00,
2013-10-02 10:20:00,66.9,61.9,29.96,WNW,295,6.0,12.0,84,0.00,,,0.00,meteohub,2013-10-02 14:20:00,
2013-10-02 10:25:00,67.1,62.4,29.96,West,280,1.0,13.0,85,0.00,,,0.00,meteohub,2013-10-02 14:25:00,
2013-10-02 10:30:00,67.3,62.6,29.96,West,277,0.0,13.0,85,0.00,,,0.00,meteohub,2013-10-02 14:30:00,
2013-10-02 10:35:00,67.5,62.4,29.96,WNW,283,0.0,13.0,84,0.00,,,0.00,meteohub,2013-10-02 14:35:00,
2013-10-02 10:40:00,67.6,62.6,29.96,WNW,291,0.0,9.0,84,0.00,,,0.00,meteohub,2013-10-02 14:40:00,
2013-10-02 10:45:00,68.0,62.6,29.96,WNW,289,2.0,9.0,83,0.00,,,0.00,meteohub,2013-10-02 14:45:00,
2013-10-02 10:50:00,67.8,62.1,29.96,West,281,6.0,9.0,82,0.00,,,0.00,meteohub,2013-10-02 14:50:00,
2013-10-02 10:55:00,67.8,62.1,29.96,WNW,286,2.0,9.0,82,0.00,,,0.00,meteohub,2013-10-02 14:55:00,
2013-10-02 11:00:00,68.4,62.6,29.96,West,275,11.0,11.0,82,0.00,,,0.00,meteohub,2013-10-02 15:00:00,
2013-10-02 11:05:00,68.2,62.1,29.96,WNW,283,0.0,11.0,81,0.00,,,0.00,meteohub,2013-10-02 15:05:00,
2013-10-02 11:10:00,68.2,61.7,29.96,WNW,290,6.0,11.0,80,0.00,,,0.00,meteohub,2013-10-02 15:10:00,
2013-10-02 11:15:00,68.2,62.1,29.96,WNW,284,6.0,11.0,81,0.00,,,0.00,meteohub,2013-10-02 15:15:00,
2013-10-02 11:20:00,68.5,62.1,29.97,West,260,1.0,9.0,80,0.00,,,0.00,meteohub,2013-10-02 15:20:00,
2013-10-02 11:26:00,68.5,61.7,29.96,WNW,287,5.0,9.0,79,0.00,,,0.00,meteohub,2013-10-02 15:26:00,
2013-10-02 11:31:00,68.5,62.1,29.96,WNW,288,5.0,11.0,80,0.00,,,0.00,meteohub,2013-10-02 15:31:00,
2013-10-02 11:33:00,68.5,62.1,29.97,West,277,0.0,11.0,80,0.00,,,0.00,meteohub,2013-10-02 15:33:00,
2013-10-02 11:38:00,68.5,61.7,29.96,WNW,296,6.0,11.0,79,0.00,,,0.00,meteohub,2013-10-02 15:38:00,
2013-10-02 11:43:00,68.5,61.3,29.97,West,273,7.0,11.0,78,0.00,,,0.00,meteohub,2013-10-02 15:43:00,
2013-10-02 11:48:00,68.5,61.7,29.97,NW,321,4.0,12.0,79,0.00,,,0.00,meteohub,2013-10-02 15:48:00,
2013-10-02 11:54:00,68.9,62.1,29.97,West,281,5.0,12.0,79,0.00,,,0.00,meteohub,2013-10-02 15:54:00,
2013-10-02 11:59:00,69.3,62.1,29.97,West,274,7.0,12.0,78,0.00,,,0.00,meteohub,2013-10-02 15:59:00,
2013-10-02 12:04:00,69.3,62.1,29.97,West,275,1.0,11.0,78,0.00,,,0.00,meteohub,2013-10-02 16:04:00,
2013-10-02 12:09:00,69.6,62.8,29.97,WNW,288,6.0,11.0,79,0.00,,,0.00,meteohub,2013-10-02 16:09:00,
2013-10-02 12:14:00,70.3,62.8,29.97,South,190,5.0,8.0,77,0.00,,,0.00,meteohub,2013-10-02 16:14:00,
2013-10-02 12:19:00,70.5,63.0,29.97,WNW,298,8.0,12.0,77,0.00,,,0.00,meteohub,2013-10-02 16:19:00,
2013-10-02 12:24:00,70.5,61.9,29.97,West,271,12.0,14.0,74,0.00,,,0.00,meteohub,2013-10-02 16:24:00,
2013-10-02 12:29:00,70.5,61.9,29.97,SW,229,4.0,14.0,74,0.00,,,0.00,meteohub,2013-10-02 16:29:00,
2013-10-02 12:34:00,70.9,62.6,29.97,SW,235,3.0,14.0,75,0.00,,,0.00,meteohub,2013-10-02 16:34:00,
2013-10-02 12:39:00,71.6,62.1,29.97,SW,229,10.0,13.0,72,0.00,,,0.00,meteohub,2013-10-02 16:39:00,
2013-10-02 12:44:00,71.1,61.5,29.97,WSW,255,0.0,13.0,72,0.00,,,0.00,meteohub,2013-10-02 16:44:00,
2013-10-02 12:49:00,71.4,61.9,29.97,SSW,213,2.0,13.0,72,0.00,,,0.00,meteohub,2013-10-02 16:49:00,
2013-10-02 12:54:00,71.2,61.7,29.97,WNW,287,7.0,13.0,72,0.00,,,0.00,meteohub,2013-10-02 16:54:00,
2013-10-02 12:59:00,71.6,62.4,29.97,West,277,2.0,15.0,73,0.00,,,0.00,meteohub,2013-10-02 16:59:00,
2013-10-02 13:04:00,72.1,62.2,29.97,SSW,194,3.0,16.0,71,0.00,,,0.00,meteohub,2013-10-02 17:04:00,
2013-10-02 13:09:00,72.0,61.7,29.97,SSW,196,6.0,16.0,70,0.00,,,0.00,meteohub,2013-10-02 17:09:00,
2013-10-02 13:14:00,72.1,61.9,29.96,SW,221,7.0,16.0,70,0.00,,,0.00,meteohub,2013-10-02 17:14:00,
2013-10-02 13:19:00,72.7,62.8,29.96,SW,224,4.0,16.0,71,0.00,,,0.00,meteohub,2013-10-02 17:19:00,
2013-10-02 13:24:00,72.9,62.1,29.96,SW,217,8.0,19.0,69,0.00,,,0.00,meteohub,2013-10-02 17:24:00,
2013-10-02 13:29:00,72.9,61.7,29.96,WNW,284,8.0,19.0,68,0.00,,,0.00,meteohub,2013-10-02 17:29:00,
2013-10-02 13:34:00,73.6,62.4,29.96,WSW,250,5.0,19.0,68,0.00,,,0.00,meteohub,2013-10-02 17:34:00,
2013-10-02 13:39:00,73.2,62.1,29.96,WNW,284,11.0,15.0,68,0.00,,,0.00,meteohub,2013-10-02 17:39:00,
2013-10-02 13:45:00,73.6,62.4,29.96,SSW,196,8.0,15.0,68,0.00,,,0.00,meteohub,2013-10-02 17:45:00,
2013-10-02 13:50:00,73.2,61.5,29.96,West,265,2.0,15.0,67,0.00,,,0.00,meteohub,2013-10-02 17:50:00,
2013-10-02 13:55:00,73.6,62.8,29.96,West,261,1.0,15.0,69,0.00,,,0.00,meteohub,2013-10-02 17:55:00,
2013-10-02 14:00:00,73.4,63.0,29.96,SSW,207,8.0,12.0,70,0.00,,,0.00,meteohub,2013-10-02 18:00:00,
2013-10-02 14:05:00,73.2,62.8,29.96,SSW,196,5.0,12.0,70,0.00,,,0.00,meteohub,2013-10-02 18:05:00,
2013-10-02 14:10:00,73.2,62.8,29.96,West,275,4.0,12.0,70,0.00,,,0.00,meteohub,2013-10-02 18:10:00,
2013-10-02 14:15:00,73.6,63.1,29.96,SW,234,7.0,13.0,70,0.00,,,0.00,meteohub,2013-10-02 18:15:00,
2013-10-02 14:20:00,72.9,62.4,29.96,WSW,251,10.0,15.0,70,0.00,,,0.00,meteohub,2013-10-02 18:20:00,
2013-10-02 14:25:00,72.3,62.4,29.96,WSW,253,7.0,16.0,71,0.00,,,0.00,meteohub,2013-10-02 18:25:00,
2013-10-02 14:30:00,72.0,62.1,29.96,SW,223,8.0,18.0,71,0.00,,,0.00,meteohub,2013-10-02 18:30:00,
2013-10-02 14:35:00,72.0,62.1,29.96,SW,219,13.0,18.0,71,0.00,,,0.00,meteohub,2013-10-02 18:35:00,
2013-10-02 14:40:00,71.8,62.2,29.96,SW,236,5.0,18.0,72,0.00,,,0.00,meteohub,2013-10-02 18:40:00,
2013-10-02 14:45:00,72.0,62.4,29.96,South,186,5.0,18.0,72,0.00,,,0.00,meteohub,2013-10-02 18:45:00,
2013-10-02 14:50:00,72.0,62.1,29.96,SW,219,13.0,18.0,71,0.00,,,0.00,meteohub,2013-10-02 18:50:00,
2013-10-02 14:55:00,71.6,62.1,29.96,SW,225,18.0,19.0,72,0.00,,,0.00,meteohub,2013-10-02 18:55:00,
2013-10-02 15:00:00,71.8,62.6,29.96,West,276,11.0,19.0,73,0.00,,,0.00,meteohub,2013-10-02 19:00:00,
2013-10-02 15:05:00,72.0,62.1,29.96,SW,231,8.0,19.0,71,0.00,,,0.00,meteohub,2013-10-02 19:05:00,
2013-10-02 15:10:00,71.8,61.9,29.96,South,184,6.0,18.0,71,0.00,,,0.00,meteohub,2013-10-02 19:10:00,
2013-10-02 15:16:00,72.0,62.4,29.96,SSW,213,5.0,16.0,72,0.00,,,0.00,meteohub,2013-10-02 19:16:00,
2013-10-02 15:21:00,71.4,62.2,29.96,SSW,205,8.0,16.0,73,0.00,,,0.00,meteohub,2013-10-02 19:21:00,
2013-10-02 15:26:00,71.4,61.9,29.96,SW,229,8.0,16.0,72,0.00,,,0.00,meteohub,2013-10-02 19:26:00,
2013-10-02 15:31:00,71.6,62.1,29.96,SSW,203,14.0,16.0,72,0.00,,,0.00,meteohub,2013-10-02 19:31:00,
2013-10-02 15:36:00,71.6,62.4,29.96,SSW,213,4.0,20.0,73,0.00,,,0.00,meteohub,2013-10-02 19:36:00,
2013-10-02 15:41:00,71.4,61.9,29.96,SW,230,5.0,20.0,72,0.00,,,0.00,meteohub,2013-10-02 19:41:00,
2013-10-02 15:46:00,71.6,62.1,29.96,SW,235,8.0,20.0,72,0.00,,,0.00,meteohub,2013-10-02 19:46:00,
2013-10-02 15:51:00,71.8,61.9,29.96,WNW,294,9.0,19.0,71,0.00,,,0.00,meteohub,2013-10-02 19:51:00,
2013-10-02 15:56:00,71.4,61.9,29.97,SW,221,11.0,19.0,72,0.00,,,0.00,meteohub,2013-10-02 19:56:00,
2013-10-02 16:01:00,71.8,62.6,29.97,SW,228,4.0,19.0,73,0.00,,,0.00,meteohub,2013-10-02 20:01:00,
2013-10-02 16:06:00,71.8,62.2,29.97,SW,215,8.0,18.0,72,0.00,,,0.00,meteohub,2013-10-02 20:06:00,
2013-10-02 16:11:00,71.2,62.1,29.96,SW,215,9.0,18.0,73,0.00,,,0.00,meteohub,2013-10-02 20:11:00,
2013-10-02 16:16:00,70.9,62.2,29.97,SW,219,10.0,19.0,74,0.00,,,0.00,meteohub,2013-10-02 20:16:00,
2013-10-02 16:21:00,70.9,62.2,29.97,SW,221,7.0,19.0,74,0.00,,,0.00,meteohub,2013-10-02 20:21:00,
2013-10-02 16:26:00,71.1,62.4,29.97,West,272,7.0,19.0,74,0.00,,,0.00,meteohub,2013-10-02 20:26:00,
2013-10-02 16:31:00,71.1,62.8,29.97,SW,232,5.0,17.0,75,0.00,,,0.00,meteohub,2013-10-02 20:31:00,
2013-10-02 16:36:00,70.9,63.0,29.97,SSE,168,2.0,14.0,76,0.00,,,0.00,meteohub,2013-10-02 20:36:00,
2013-10-02 16:42:00,70.9,63.0,29.97,SSW,207,7.0,14.0,76,0.00,,,0.00,meteohub,2013-10-02 20:42:00,
2013-10-02 16:47:00,70.5,62.6,29.97,SW,223,12.0,17.0,76,0.00,,,0.00,meteohub,2013-10-02 20:47:00,
2013-10-02 16:52:00,70.5,63.0,29.97,SW,232,7.0,17.0,77,0.00,,,0.00,meteohub,2013-10-02 20:52:00,
2013-10-02 16:57:00,70.9,62.6,29.97,SW,232,5.0,17.0,75,0.00,,,0.00,meteohub,2013-10-02 20:57:00,
2013-10-02 17:02:00,71.1,63.1,29.97,SW,216,7.0,14.0,76,0.00,,,0.00,meteohub,2013-10-02 21:02:00,
2013-10-02 17:07:00,71.1,62.4,29.97,SW,221,6.0,14.0,74,0.00,,,0.00,meteohub,2013-10-02 21:07:00,
2013-10-02 17:12:00,70.5,62.6,29.97,WSW,255,11.0,14.0,76,0.00,,,0.00,meteohub,2013-10-02 21:12:00,
2013-10-02 17:17:00,70.3,62.4,29.97,South,183,4.0,14.0,76,0.00,,,0.00,meteohub,2013-10-02 21:17:00,
2013-10-02 17:22:00,70.3,62.8,29.97,SW,233,6.0,14.0,77,0.00,,,0.00,meteohub,2013-10-02 21:22:00,
2013-10-02 17:27:00,70.2,62.6,29.97,SW,227,6.0,14.0,77,0.00,,,0.00,meteohub,2013-10-02 21:27:00,
2013-10-02 17:32:00,70.2,62.6,29.97,SSW,210,3.0,13.0,77,0.00,,,0.00,meteohub,2013-10-02 21:32:00,
2013-10-02 17:37:00,70.0,62.4,29.97,WSW,239,6.0,13.0,77,0.00,,,0.00,meteohub,2013-10-02 21:37:00,
2013-10-02 17:42:00,69.6,62.1,29.98,WSW,251,8.0,15.0,77,0.00,,,0.00,meteohub,2013-10-02 21:42:00,
2013-10-02 17:47:00,69.3,62.1,29.98,South,175,6.0,15.0,78,0.00,,,0.00,meteohub,2013-10-02 21:47:00,
2013-10-02 17:52:00,69.1,62.2,29.98,South,171,7.0,15.0,79,0.00,,,0.00,meteohub,2013-10-02 21:52:00,
2013-10-02 17:57:00,69.1,62.2,29.98,WSW,241,12.0,15.0,79,0.00,,,0.00,meteohub,2013-10-02 21:57:00,
2013-10-02 18:02:00,69.1,62.6,29.98,SW,221,5.0,13.0,80,0.00,,,0.00,meteohub,2013-10-02 22:02:00,
2013-10-02 18:07:00,68.9,62.4,29.98,SSW,211,5.0,12.0,80,0.00,,,0.00,meteohub,2013-10-02 22:07:00,
2013-10-02 18:12:00,68.7,62.2,29.98,SW,219,5.0,12.0,80,0.00,,,0.00,meteohub,2013-10-02 22:12:00,
2013-10-02 18:17:00,68.7,62.6,29.98,SSW,213,3.0,11.0,81,0.00,,,0.00,meteohub,2013-10-02 22:17:00,
2013-10-02 18:22:00,68.5,62.1,29.98,South,186,4.0,10.0,80,0.00,,,0.00,meteohub,2013-10-02 22:22:00,
2013-10-02 18:27:00,68.5,62.1,29.99,SW,214,4.0,10.0,80,0.00,,,0.00,meteohub,2013-10-02 22:27:00,
2013-10-02 18:32:00,68.4,61.9,29.99,WSW,242,1.0,8.0,80,0.00,,,0.00,meteohub,2013-10-02 22:32:00,
2013-10-02 18:37:00,68.2,61.7,29.99,SSW,211,0.0,10.0,80,0.00,,,0.00,meteohub,2013-10-02 22:37:00,
2013-10-02 18:42:00,67.8,61.7,29.99,SW,214,1.0,10.0,81,0.00,,,0.00,meteohub,2013-10-02 22:42:00,
2013-10-02 18:47:00,67.6,61.2,29.99,SSW,208,0.0,10.0,80,0.00,,,0.00,meteohub,2013-10-02 22:47:00,
2013-10-02 18:52:00,67.5,61.3,29.99,SSW,205,3.0,10.0,81,0.00,,,0.00,meteohub,2013-10-02 22:52:00,
2013-10-02 18:57:00,67.3,61.2,29.99,SW,217,0.0,10.0,81,0.00,,,0.00,meteohub,2013-10-02 22:57:00,
2013-10-02 19:02:00,66.9,61.0,29.99,SW,217,0.0,6.0,81,0.00,,,0.00,meteohub,2013-10-02 23:02:00,
2013-10-02 19:07:00,66.7,60.8,29.99,SW,221,2.0,5.0,81,0.00,,,0.00,meteohub,2013-10-02 23:07:00,
2013-10-02 19:12:00,66.6,60.6,29.99,SW,221,0.0,5.0,81,0.00,,,0.00,meteohub,2013-10-02 23:12:00,
2013-10-02 19:17:00,66.4,60.8,29.99,SW,221,0.0,5.0,82,0.00,,,0.00,meteohub,2013-10-02 23:17:00,
2013-10-02 19:22:00,66.2,60.6,29.99,SSW,206,4.0,5.0,82,0.00,,,0.00,meteohub,2013-10-02 23:22:00,
2013-10-02 19:27:00,66.0,60.4,29.99,SSW,209,0.0,5.0,82,0.00,,,0.00,meteohub,2013-10-02 23:27:00,
2013-10-02 19:32:00,65.8,60.6,29.99,SW,234,3.0,5.0,83,0.00,,,0.00,meteohub,2013-10-02 23:32:00,
2013-10-02 19:37:00,65.8,60.6,29.99,SW,227,0.0,5.0,83,0.00,,,0.00,meteohub,2013-10-02 23:37:00,
2013-10-02 19:42:00,65.7,60.4,29.99,SW,227,0.0,5.0,83,0.00,,,0.00,meteohub,2013-10-02 23:42:00,
2013-10-02 19:47:00,65.5,60.4,29.99,WSW,245,3.0,5.0,84,0.00,,,0.00,meteohub,2013-10-02 23:47:00,
2013-10-02 19:49:00,65.5,60.8,29.99,SW,232,3.0,5.0,85,0.00,,,0.00,meteohub,2013-10-02 23:49:00,
2013-10-02 19:54:00,65.5,60.8,29.99,SW,232,1.0,6.0,85,0.00,,,0.00,meteohub,2013-10-02 23:54:00,
2013-10-02 19:59:00,65.1,60.4,29.99,SW,232,0.0,6.0,85,0.00,,,0.00,meteohub,2013-10-02 23:59:00,
2013-10-02 20:04:00,64.9,60.6,30.00,SW,232,0.0,6.0,86,0.00,,,0.00,meteohub,2013-10-03 00:04:00,
2013-10-02 20:09:00,64.9,60.6,29.99,SW,232,0.0,3.0,86,0.00,,,0.00,meteohub,2013-10-03 00:09:00,
2013-10-02 20:14:00,64.8,60.4,30.00,SW,232,0.0,3.0,86,0.00,,,0.00,meteohub,2013-10-03 00:14:00,
2013-10-02 20:19:00,64.6,60.6,30.00,SW,232,2.0,3.0,87,0.00,,,0.00,meteohub,2013-10-03 00:19:00,
2013-10-02 20:24:00,64.2,60.6,30.00,SW,232,0.0,3.0,88,0.00,,,0.00,meteohub,2013-10-03 00:24:00,
2013-10-02 20:30:00,64.0,60.4,30.00,SW,232,0.0,3.0,88,0.00,,,0.00,meteohub,2013-10-03 00:30:00,
2013-10-02 20:35:00,64.0,60.4,30.01,SW,232,0.0,3.0,88,0.00,,,0.00,meteohub,2013-10-03 00:35:00,
2013-10-02 20:40:00,63.9,60.3,30.01,SW,232,0.0,3.0,88,0.00,,,0.00,meteohub,2013-10-03 00:40:00,
2013-10-02 20:45:00,63.9,60.6,30.01,SW,232,0.0,2.0,89,0.00,,,0.00,meteohub,2013-10-03 00:45:00,
2013-10-02 20:50:00,63.7,60.4,30.01,SW,232,0.0,3.0,89,0.00,,,0.00,meteohub,2013-10-03 00:50:00,
2013-10-02 20:55:00,63.3,60.1,30.01,SW,232,0.0,3.0,89,0.00,,,0.00,meteohub,2013-10-03 00:55:00,
2013-10-02 21:00:00,63.3,60.3,30.01,SW,232,0.0,3.0,90,0.00,,,0.00,meteohub,2013-10-03 01:00:00,
2013-10-02 21:05:00,63.1,60.1,30.01,SW,232,0.0,4.0,90,0.00,,,0.00,meteohub,2013-10-03 01:05:00,
2013-10-02 21:10:00,63.0,59.9,30.01,SW,232,0.0,4.0,90,0.00,,,0.00,meteohub,2013-10-03 01:10:00,
2013-10-02 21:15:00,63.0,60.3,30.01,SW,232,0.0,4.0,91,0.00,,,0.00,meteohub,2013-10-03 01:15:00,
2013-10-02 21:20:00,62.8,60.1,30.01,SW,232,0.0,1.0,91,0.00,,,0.00,meteohub,2013-10-03 01:20:00,
2013-10-02 21:25:00,62.6,59.9,30.01,SW,232,0.0,1.0,91,0.00,,,0.00,meteohub,2013-10-03 01:25:00,
2013-10-02 21:30:00,62.4,60.1,30.01,SW,232,0.0,1.0,92,0.00,,,0.00,meteohub,2013-10-03 01:30:00,
2013-10-02 21:35:00,62.2,59.9,30.02,SW,232,0.0,1.0,92,0.00,,,0.00,meteohub,2013-10-03 01:35:00,
2013-10-02 21:40:00,62.2,59.9,30.02,SW,232,0.0,2.0,92,0.00,,,0.00,meteohub,2013-10-03 01:40:00,
2013-10-02 21:45:00,62.1,59.7,30.02,SW,232,0.0,2.0,92,0.00,,,0.00,meteohub,2013-10-03 01:45:00,
2013-10-02 21:50:00,61.9,59.5,30.02,SW,232,0.0,1.0,92,0.00,,,0.00,meteohub,2013-10-03 01:50:00,
2013-10-02 21:55:00,61.5,59.5,30.02,SW,232,0.0,0.0,93,0.00,,,0.00,meteohub,2013-10-03 01:55:00,
2013-10-02 22:00:00,61.3,59.4,30.02,SW,232,0.0,0.0,93,0.00,,,0.00,meteohub,2013-10-03 02:00:00,
2013-10-02 22:05:00,61.2,59.4,30.02,SW,232,0.0,0.0,94,0.00,,,0.00,meteohub,2013-10-03 02:05:00,
2013-10-02 22:10:00,61.2,59.2,30.02,SW,232,0.0,0.0,93,0.00,,,0.00,meteohub,2013-10-03 02:10:00,
2013-10-02 22:15:00,61.2,59.2,30.03,SW,232,0.0,3.0,93,0.00,,,0.00,meteohub,2013-10-03 02:15:00,
2013-10-02 22:20:00,61.2,59.4,30.03,SW,232,0.0,3.0,94,0.00,,,0.00,meteohub,2013-10-03 02:20:00,
2013-10-02 22:25:00,61.2,59.4,30.03,SW,232,0.0,3.0,94,0.00,,,0.00,meteohub,2013-10-03 02:25:00,
2013-10-02 22:30:00,61.0,58.6,30.03,SW,232,0.0,3.0,92,0.00,,,0.00,meteohub,2013-10-03 02:30:00,
2013-10-02 22:35:00,60.4,58.1,30.03,SW,232,0.0,3.0,92,0.00,,,0.00,meteohub,2013-10-03 02:35:00,
2013-10-02 22:40:00,59.7,57.0,30.04,SW,232,0.0,0.0,91,0.00,,,0.00,meteohub,2013-10-03 02:40:00,
2013-10-02 22:45:00,59.4,57.0,30.04,SW,232,0.0,0.0,92,0.00,,,0.00,meteohub,2013-10-03 02:45:00,
2013-10-02 22:50:00,59.0,57.0,30.04,SW,232,0.0,1.0,93,0.00,,,0.00,meteohub,2013-10-03 02:50:00,
2013-10-02 22:55:00,58.8,57.0,30.04,SW,232,0.0,1.0,94,0.00,,,0.00,meteohub,2013-10-03 02:55:00,
2013-10-02 23:00:00,58.6,56.8,30.04,SW,232,0.0,1.0,94,0.00,,,0.00,meteohub,2013-10-03 03:00:00,
2013-10-02 23:05:00,58.5,56.5,30.04,SW,232,0.0,0.0,93,0.00,,,0.00,meteohub,2013-10-03 03:05:00,
2013-10-02 23:10:00,58.1,56.1,30.04,SW,232,0.0,0.0,93,0.00,,,0.00,meteohub,2013-10-03 03:10:00,
2013-10-02 23:15:00,57.7,55.8,30.04,SW,232,0.0,0.0,93,0.00,,,0.00,meteohub,2013-10-03 03:15:00,
2013-10-02 23:20:00,57.6,55.6,30.05,SW,232,0.0,0.0,93,0.00,,,0.00,meteohub,2013-10-03 03:20:00,
2013-10-02 23:25:00,57.2,55.2,30.05,SW,232,0.0,0.0,93,0.00,,,0.00,meteohub,2013-10-03 03:25:00,
2013-10-02 23:31:00,56.8,54.9,30.05,SW,232,0.0,0.0,93,0.00,,,0.00,meteohub,2013-10-03 03:31:00,
2013-10-02 23:36:00,56.7,55.0,30.05,SW,232,0.0,0.0,94,0.00,,,0.00,meteohub,2013-10-03 03:36:00,
2013-10-02 23:41:00,56.3,54.7,30.05,SW,232,0.0,0.0,94,0.00,,,0.00,meteohub,2013-10-03 03:41:00,
2013-10-02 23:46:00,55.9,54.0,30.05,SW,232,0.0,0.0,93,0.00,,,0.00,meteohub,2013-10-03 03:46:00,
2013-10-02 23:51:00,55.8,53.8,30.05,SW,232,0.0,0.0,93,0.00,,,0.00,meteohub,2013-10-03 03:51:00,
2013-10-02 23:56:00,55.4,53.4,30.05,SW,232,0.0,0.0,93,0.00,,,0.00,meteohub,2013-10-03 03:56:00,